TimeEST,TemperatureF,Dew PointF,Humidity,Sea Level PressureIn,VisibilityMPH,Wind Direction,Wind SpeedMPH,Gust SpeedMPH,PrecipitationIn,Events,Conditions,WindDirDegrees,DateUTC
12:35 AM,32.0,26.6,80,30.08,10.0,West,12.7,19.6,N/A,,Overcast,280,2013-01-14 05:35:00
12:55 AM,31.8,24.8,75,30.09,10.0,West,12.7,21.9,N/A,,Overcast,280,2013-01-14 05:55:00
1:15 AM,31.6,24.8,76,30.10,10.0,West,13.8,17.3,N/A,,Overcast,280,2013-01-14 06:15:00
1:35 AM,31.1,23.9,75,30.11,10.0,West,10.4,18.4,N/A,,Overcast,280,2013-01-14 06:35:00
1:56 AM,30.7,23.7,75,30.12,10.0,West,9.2,18.4,N/A,,Overcast,280,2013-01-14 06:56:00
2:15 AM,30.6,23.7,76,30.13,10.0,West,12.7,17.3,N/A,,Overcast,270,2013-01-14 07:15:00
2:35 AM,30.2,23.7,77,30.16,10.0,West,11.5,20.7,N/A,,Overcast,270,2013-01-14 07:35:00
2:56 AM,29.3,21.9,74,30.17,10.0,West,12.7,18.4,N/A,,Overcast,280,2013-01-14 07:56:00
3:15 AM,28.9,21.6,74,30.19,10.0,West,12.7,18.4,N/A,,Overcast,280,2013-01-14 08:15:00
3:36 AM,28.4,20.8,73,30.20,10.0,West,12.7,20.7,N/A,,Overcast,270,2013-01-14 08:36:00
3:55 AM,27.5,20.3,74,30.20,10.0,West,12.7,-,N/A,,Overcast,280,2013-01-14 08:55:00
4:36 AM,26.4,20.1,77,30.22,10.0,West,16.1,20.7,N/A,,Overcast,270,2013-01-14 09:36:00
5:15 AM,26.1,19.8,77,30.23,10.0,West,16.1,-,N/A,,Overcast,260,2013-01-14 10:15:00
5:36 AM,26.1,19.9,78,30.24,10.0,West,12.7,17.3,N/A,,Overcast,270,2013-01-14 10:36:00
5:55 AM,25.5,19.0,76,30.25,10.0,WNW,10.4,16.1,N/A,,Overcast,290,2013-01-14 10:55:00
6:16 AM,25.3,18.3,75,30.27,10.0,WNW,6.9,-,N/A,,Overcast,290,2013-01-14 11:16:00
6:35 AM,25.0,18.0,75,30.28,10.0,WNW,8.1,17.3,N/A,,Overcast,290,2013-01-14 11:35:00
7:16 AM,25.2,18.1,75,30.29,10.0,WNW,5.8,-,N/A,,Overcast,300,2013-01-14 12:16:00
7:35 AM,25.2,17.8,74,30.30,10.0,WNW,8.1,-,N/A,,Overcast,300,2013-01-14 12:35:00
7:55 AM,24.8,17.6,74,30.32,10.0,WNW,8.1,-,N/A,,Overcast,300,2013-01-14 12:55:00
8:16 AM,25.2,18.0,74,30.33,10.0,West,8.1,-,N/A,,Overcast,270,2013-01-14 13:16:00
8:35 AM,25.5,18.5,75,30.35,10.0,WNW,6.9,-,N/A,,Overcast,290,2013-01-14 13:35:00
8:55 AM,25.3,17.8,73,30.36,10.0,West,8.1,-,N/A,,Overcast,280,2013-01-14 13:55:00
9:15 AM,25.2,17.2,72,30.36,10.0,WNW,5.8,-,N/A,,Overcast,290,2013-01-14 14:15:00
9:35 AM,25.3,17.6,72,30.38,10.0,WNW,8.1,-,N/A,,Overcast,290,2013-01-14 14:35:00
9:56 AM,25.7,17.8,72,30.39,10.0,West,4.6,-,N/A,,Overcast,280,2013-01-14 14:56:00
10:15 AM,26.1,18.1,72,30.39,10.0,WNW,4.6,-,N/A,,Overcast,300,2013-01-14 15:15:00
10:35 AM,25.7,17.2,70,30.39,10.0,NNW,8.1,-,N/A,,Overcast,330,2013-01-14 15:35:00
10:55 AM,25.9,17.1,69,30.39,10.0,WNW,5.8,-,N/A,,Overcast,290,2013-01-14 15:55:00
11:15 AM,26.1,17.4,70,30.39,10.0,West,5.8,-,N/A,,Overcast,280,2013-01-14 16:15:00
11:36 AM,26.1,16.3,67,30.38,10.0,NW,6.9,-,N/A,,Overcast,310,2013-01-14 16:36:00
11:55 AM,26.2,16.2,66,30.37,10.0,NNW,3.5,-,N/A,,Overcast,330,2013-01-14 16:55:00
12:15 PM,26.2,16.0,65,30.35,10.0,NNW,5.8,-,N/A,,Overcast,330,2013-01-14 17:15:00
12:35 PM,26.8,15.4,62,30.35,10.0,West,5.8,-,N/A,,Overcast,270,2013-01-14 17:35:00
12:55 PM,26.4,15.8,64,30.35,10.0,NW,4.6,-,N/A,,Overcast,310,2013-01-14 17:55:00
1:15 PM,27.0,16.5,65,30.35,10.0,NNW,6.9,-,N/A,,Overcast,340,2013-01-14 18:15:00
1:35 PM,26.6,15.3,62,30.36,10.0,Calm,Calm,-,N/A,,Overcast,0,2013-01-14 18:35:00
1:55 PM,27.1,16.3,64,30.37,10.0,Calm,Calm,-,N/A,,Overcast,0,2013-01-14 18:55:00
2:16 PM,26.6,16.2,65,30.37,10.0,NNW,5.8,-,N/A,,Overcast,330,2013-01-14 19:16:00
2:35 PM,26.6,16.2,65,30.37,10.0,NNW,4.6,-,N/A,,Overcast,330,2013-01-14 19:35:00
2:55 PM,26.4,16.5,66,30.38,10.0,Calm,Calm,-,N/A,,Overcast,0,2013-01-14 19:55:00
3:15 PM,26.6,15.8,64,30.39,10.0,NNW,4.6,-,N/A,,Overcast,330,2013-01-14 20:15:00
3:35 PM,26.8,16.5,65,30.39,10.0,WNW,4.6,-,N/A,,Overcast,290,2013-01-14 20:35:00
3:56 PM,26.6,16.5,66,30.41,10.0,North,3.5,-,N/A,,Overcast,350,2013-01-14 20:56:00
4:15 PM,27.1,16.5,64,30.43,10.0,West,4.6,-,N/A,,Overcast,280,2013-01-14 21:15:00
4:35 PM,27.0,16.3,64,30.43,10.0,WNW,3.5,-,N/A,,Overcast,300,2013-01-14 21:35:00
4:56 PM,27.0,16.7,65,30.43,10.0,NW,4.6,-,N/A,,Overcast,320,2013-01-14 21:56:00
5:15 PM,27.0,16.9,66,30.43,10.0,NW,3.5,-,N/A,,Overcast,310,2013-01-14 22:15:00
5:35 PM,27.0,17.1,66,30.43,10.0,West,4.6,-,N/A,,Overcast,280,2013-01-14 22:35:00
5:55 PM,26.8,17.1,67,30.43,10.0,WNW,4.6,-,N/A,,Overcast,290,2013-01-14 22:55:00
6:15 PM,26.6,17.4,68,30.42,10.0,WNW,4.6,-,N/A,,Overcast,290,2013-01-14 23:15:00
6:36 PM,26.4,16.9,67,30.41,10.0,NW,4.6,-,N/A,,Overcast,310,2013-01-14 23:36:00
6:55 PM,26.6,17.2,68,30.42,10.0,WNW,5.8,-,N/A,,Overcast,300,2013-01-14 23:55:00
7:15 PM,26.6,17.8,69,30.41,10.0,WNW,4.6,-,N/A,,Scattered Clouds,300,2013-01-15 00:15:00
7:36 PM,26.4,17.2,68,30.40,10.0,NW,3.5,-,N/A,,Mostly Cloudy,320,2013-01-15 00:36:00
7:55 PM,26.1,17.4,70,30.40,10.0,Calm,Calm,-,N/A,,Mostly Cloudy,0,2013-01-15 00:55:00
8:15 PM,26.2,18.0,71,30.40,10.0,Calm,Calm,-,N/A,,Mostly Cloudy,0,2013-01-15 01:15:00
8:35 PM,26.1,17.6,70,30.39,10.0,NW,3.5,-,N/A,,Overcast,320,2013-01-15 01:35:00
8:55 PM,25.5,17.6,72,30.39,10.0,Calm,Calm,-,N/A,,Scattered Clouds,0,2013-01-15 01:55:00
9:16 PM,24.8,17.8,75,30.39,10.0,Calm,Calm,-,N/A,,Clear,0,2013-01-15 02:16:00
9:35 PM,24.8,17.4,74,30.39,10.0,Calm,Calm,-,N/A,,Clear,0,2013-01-15 02:35:00
9:55 PM,23.4,17.6,79,30.39,10.0,Calm,Calm,-,N/A,,Clear,0,2013-01-15 02:55:00
10:16 PM,22.6,18.5,84,30.38,10.0,Calm,Calm,-,N/A,,Clear,0,2013-01-15 03:16:00
10:35 PM,21.9,18.1,85,30.38,10.0,Calm,Calm,-,N/A,,Clear,0,2013-01-15 03:35:00
10:56 PM,21.2,17.6,86,30.38,10.0,Calm,Calm,-,N/A,,Clear,0,2013-01-15 03:56:00
11:15 PM,21.0,17.6,87,30.38,10.0,Calm,Calm,-,N/A,,Clear,0,2013-01-15 04:15:00
11:35 PM,20.8,17.6,87,30.39,10.0,Calm,Calm,-,N/A,,Clear,0,2013-01-15 04:35:00
11:55 PM,20.8,17.8,88,30.38,10.0,Calm,Calm,-,N/A,,Clear,0,2013-01-15 04:55:00